This is the latest recevied weather packets stored in our database for station/object KE5YIM-13. If no packets are shown the sender has not sent any weather packets the latest 10 day(s).
| Time | Temp. | Humidity | Pressure | Rain* | Wind** | Luminosity | Snow |
|---|---|---|---|---|---|---|---|
| 1777478374 | 13.33° C | 67% | 1016.7 hPa | 0 mm | - | 612 W/m² | - |
| 1777478070 | 13.33° C | 66% | 1016.5 hPa | 0 mm | - | 300 W/m² | - |
| 1777477766 | 13.89° C | 66% | 1016.4 hPa | 0 mm | - | 582 W/m² | - |
| 1777477462 | 13.89° C | 67% | 1016.7 hPa | 0 mm | - | 611 W/m² | - |
| 1777477159 | 13.33° C | 69% | 1016.7 hPa | 0 mm | - | 545 W/m² | - |
| 1777476856 | 13.33° C | 67% | 1016.7 hPa | 0 mm | - | 787 W/m² | - |
| 1777476554 | 13.33° C | 67% | 1016.7 hPa | 0 mm | - | 776 W/m² | - |
| 1777476250 | 13.33° C | 70% | 1016.5 hPa | 0 mm | - | 744 W/m² | - |
| 1777475945 | 13.33° C | 69% | 1016.5 hPa | 0 mm | - | 795 W/m² | - |
| 1777475641 | 13.89° C | 68% | 1016.4 hPa | 0 mm | - | 690 W/m² | - |
| 1777475338 | 13.33° C | 67% | 1016.5 hPa | 0 mm | - | 707 W/m² | - |
| 1777475033 | 13.33° C | 68% | 1016.6 hPa | 0 mm | - | 750 W/m² | - |
| 1777474730 | 13.89° C | 67% | 1016.6 hPa | 0 mm | - | 604 W/m² | - |
| 1777474426 | 13.33° C | 68% | 1016.4 hPa | 0 mm | - | 727 W/m² | - |
| 1777474123 | 13.89° C | 65% | 1016.4 hPa | 0 mm | - | 697 W/m² | - |
| 1777473821 | 14.44° C | 65% | 1016.4 hPa | 0 mm | - | 691 W/m² | - |
| 1777473517 | 15° C | 63% | 1016.2 hPa | 0 mm | - | 688 W/m² | - |
| 1777473213 | 14.44° C | 64% | 1016.2 hPa | 0 mm | - | 644 W/m² | - |
| 1777472910 | 15° C | 63% | 1016.2 hPa | 0 mm | - | 672 W/m² | - |
| 1777472606 | 14.44° C | 63% | 1016.4 hPa | 0 mm | - | 643 W/m² | - |
| 1777472303 | 14.44° C | 66% | 1016.3 hPa | 0 mm | - | 629 W/m² | - |
| 1777472000 | 14.44° C | 63% | 1016.4 hPa | 0 mm | - | 621 W/m² | - |
| 1777471696 | 15° C | 63% | 1016.2 hPa | 0 mm | - | 601 W/m² | - |
| 1777471393 | 15° C | 59% | 1016.5 hPa | 0 mm | - | 596 W/m² | - |
| 1777471089 | 15° C | 58% | 1016.6 hPa | 0 mm | - | 581 W/m² | - |
* Rain latest hour (hover to see other rain measurements)
** Current wind speed in m/s (hover to see current wind gust speed)